CZ-6A DEB

Satellite information

Favourite Embed

Satellite Type and Status

DEBRISIN ORBIT

Key statistics

Satellite CZ-6A DEB at a glance.

Uptime

1129

Days in orbit

Revolutions

≈ 14.3

Per day

Orbit

SSO

Sun Synchronous Orbit

Inclination

99.0

Latest

Satellite identification and parameters

Extended collection of information and parameters for CZ-6A DEB.

Object identification

Identified? True

Debris? True

Object name: CZ-6A DEB

International designator: 2022-151GG

Object number (NORAD): 54456

Object ID (CCSDS): 54456

Country: PEOPLES REPUBLIC OF CHINA (PRC)

Current information (Y/N): Y

RCS size: MEDIUM

Orbital parameters

Period: 100.592 minutes

Inclination: 99.0 deg

SMA: 7164.794 km

Apoapsis: 866.888 km

Periapsis: 706.43 km

RAAN: 51.1361 deg

Eccentricy: 0.01119772

Argument of periapsis: 314.9108 deg

Mean anomaly: 44.3027 deg

Mean motion: 14.31519273 rev/day

Mean motion (dot): 0.00002807 rev/day2

B* drag term: 0.001002978 1/REarth

Two-line elements (TLE)

Creation date: Dec. 14, 2025, 3:07 a.m.

Reference frame: TEME

Reference center: EARTH

Epoch: Dec. 13, 2025, 4:19 p.m. UTC

TLE line 0: 0 CZ-6A DEB

TLE line 1: 1 54456U 22151GG 25347.68046564 .00002807 00000-0 10030-2 0 9998

TLE line 2: 2 54456 99.0000 51.1361 0111977 314.9108 44.3027 14.31519273160624

Live tracking on map

Real-time ground track for satellite CZ-6A DEB.

In-orbit conjunctions

A list of the most updated potential collisions computed for object CZ-6A DEB.

Target Orbit TCA Probability of collision Miss distance Type
COSMOS 1275 DEB LEO 2025-06-09 19:24:41 0.0002239263 133.0 (m) DEBRIS
COSMOS 2251 DEB LEO 2025-05-05 12:16:56 0.0004757788 48.0 (m) DEBRIS
COSMOS 1275 DEB LEO 2024-12-11 13:57:11 0.0001277157 43.0 (m) DEBRIS

Associated space launch

Chinese satellite reported for atmospheric/ocean/environmental/spatial parameter research purposes, details TBD.

CZ-6A DEB was lifted into orbit during the mission ‘Long March 6A | Yunhai 3’, on board a Long March 6A space rocket.

The launch took place on Nov. 11, 2022, 10:52 p.m. from Launch Complex 9A.

For more information about the launch, click the button.

Launch to space Long March 6A | Yunhai 3
Long March 6A | Yunhai 3

Agency: N/A

Status: Launch Successful

Launch date: Nov. 11, 2022, 10:52 p.m. UTC

Rocket: Long March 6A

Launch pad: Launch Complex 9A

Location: Taiyuan Satellite Launch Center, People's Republic of China

...

Latest news about this satellite

There are no fresh news available about this satellite. Check back as we update our databases every day.


Newsletter sign-up

Weekly statistics, charts and insights to help you stay on top of the space industry.